Terminal Aerodrome Forecast
Issued by NWS Pueblo, CO

Home | Current Version | Previous Version | Text Only | Print | Product List | Glossary On
Versions: 1 2 3 4 5 6 7 8 9 10 11 12 13 14 15 16 17 18 19 20 21 22 23 24 25 26 27 28 29 30 31 32 33 34 35 36 37 38 39 40 41 42 43 44 45 46 47 48 49 50
000
FTUS45 KPUB 062333
TAFPUB
TAF
KPUB 062333Z 0700/0724 35009KT P6SM VCSH SCT050 BKN100
     FM070200 30006KT P6SM SCT070 BKN150
     FM070900 02010KT P6SM BKN060
     FM071600 08010KT P6SM SCT060 BKN120
     FM072000 12014KT P6SM VCTS SCT060CB BKN150=

USA.gov is the U.S. government's official web portal to all federal, state and local government web resources and services.